SCP
0 0 0 0 0 0 0 0 0 0 0 0 0 0 0 0 0 0 0 0 0 0 0 0 0 0 0 0 0 0 0 0 0 0 0 0 0 0 0 0 0 0 0 0
0 0 0 0 0 0 0 0 0 0 0 0 0 0 0 0 0 0 0 0 0 0 0 0 0 0 0 0 0 0 0 0 0 0 0 0 0 0 0 0 0 0 0 0
0 0 0 0 0 0 0 0 0 0 0 0 0 0 0 0 0 0 0 0 0 0 0 0 0 0 0 0 0 0 0 0 0 0 0 0 0 0 0 0 0 0 0 0
0 0 0 0 0 0 0 0 0 0 0 0 0 0 0 0 0 0 0 0 0 0 0 0 0 0 0 0 0 0 0 0 0 0 0 0 0 0 0 0 0 0 0 0
0 0 0 0 0 0 0 0 0 0 0 0 0 0 0 0 0 0 0 0 0 0 0 0 0 0 0 0 0 0 0 0 0 0 0 0 0 0 0 0 0 0 0 0
0 0 0 0 0 0 0 0 0 0 0 0 0 0 0 0 0 0 0 0 0 0 0 0 0 0 0 0 0 0 0 0 0 0 0 0 0 0 0 0 0 0 0 0
0 0 0 0 0 0 0 0 0 0 0 0 0 0 0 0 0 0 0 0 0 0 0 0 0 0 0 0 0 0 0 0 0 0 0 0 0 0 0 0 0 0 0 0
0 0 0 0 0 0 0 0 0 0 0 0 0 0 0 0 0 0 0 0 0 0 0 0 0 0 0 0 0 0 0 0 0 0 0 0 0 0 0 0 0 0 0 0
0 0 0 0 0 0 0 0 0 0 0 0 0 0 0 0 0 0 0 0 0 0 0 0 0 0 0 0 0 0 0 0 0 0 0 0 0 0 0 0 0 0 0 0
0 0 0 0 0 0 0 0 0 0 0 0 0 0 0 0 0 0 0 0 0 0 0 0 0 0 0 0 0 0 0 0 0 0 0 0 0 0 0 0 0 0 0 0
0 0 0 0 0 0 0 0 0 0 0 0 0 0 0 0 0 0 0 0 0 0 0 0 0 0 0 0 0 0 0 0 0 0 0 0 0 0 0 0 0 0 0 0
0 0 0 0 0 0 0 0 0 0 0 0 0 0 0 0 0 0 0 0 0 0 0 0 0 0 0 0 0 0 0 0 0 0 0 0 0 0 0 0 0 0 0 0
0 0 0 0 0 0 0 0 0 0 0 0 0 0 0 0 0 0 0 0 0 0 0 0 0 0 0 0 0 0 0 0 0 0 0 0 0 0 0 0 0 0 0 0
0 0 0 0 0 0 0 0 0 0 0 0 0 0 0 0 0 0 0 0 0 0 0 0 0 0 0 0 0 0 0 0 0 0 0 0 0 0 0 0 0 0 0 0
0 0 0 0 0 0 0 0 0 0 0 0 0 0 0 0 0 0 0 0 0 0 0 0 0 0 0 0 0 0 0 0 0 0 0 0 0 0 0 0 0 0 0 0
0 0 0 0 0 0 0 0 0 0 0 0 0 0 0 0 0 0 0 0 0 0 0 0 0 0 0 0 0 0 0 0 0 0 0 0 0 0 0 0 0 0 0 0
0 0 0 0 0 0 0 0 0 0 0 0 0 0 0 0 0 0 0 0 0 0 0 0 0 0 0 0 0 0 0 0 0 0 0 0 0 0 0 0 0 0 0 0
0 0 0 0 0 0 0 0 0 0 0 0 0 0 0 0 0 0 0 0 0 0 0 0 0 0 0 0 0 0 0 0 0 0 0 0 0 0 0 0 0 0 0 0
0 0 0 0 0 0 0 0 0 0 0 0 0 0 0 0 0 0 0 0 0 0 0 0 0 0 0 0 0 0 0 0 0 0 0 0 0 0 0 0 0 0 0 0
0 0 0 0 0 0 0 0 0 0 0 0 0 0 0 0 0 0 0 0 0 0 0 0 0 0 0 0 0 0 0 0 0 0 0 0 0 0 0 0 0 0 0 0
0 0 0 0 0 0 0 0 0 0 0 0 0 0 0 0 0 0 0 0 0 0 0 0 0 0 0 0 0 0 0 0 0 0 0 0 0 0 0 0 0 0 0 0
0 0 0 0 0 0 0 0 0 0 0 0 0 0 0 0 0 0 0 0 0 0 0 0 0 0 0 0 0 0 0 0 0 0 0 0 0 0 0 0 0 0 0 0
0 0 0 0 0 0 0 0 0 0 0 0 0 0 0 0 0 0 0 0 0 0 0 0 0 0 0 0 0 0 0 0 0 0 0 0 0 0 0 0 0 0 0 0
0 0 0 0 0 0 0 0 0 0 0 0 0 0 0 0 0 0 0 0 0 0 0 0 0 0 0 0 0 0 0 0 0 0 0 0 0 0 0 0 0 0 0 0
0 0 0 0 0 0 0 0 0 0 0 0 0 0 0 0 0 0 0 0 0 0 0 0 0 0 0 0 0 0 0 0 0 0 0 0 0 0 0 0 0 0 0 0
0 0 0 0 0 0 0 0 0 0 0 0 0 0 0 0 0 0 0 0 0 0 0 0 0 0 0 0 0 0 0 0 0 0 0 0 0 0 0 0 0 0 0 0
0 0 0 0 0 0 0 0 0 0 0 0 0 0 0 0 0 0 0 0 0 0 0 0 0 0 0 0 0 0 0 0 0 0 0 0 0 0 0 0 0 0 0 0
Wind_Speed
10 9 7 8 8 7 8 7 8 6 4 1 1 1 3 3 3 3 3 2 3 3 2 2 2 1 1 1 1 1 1 1 1 2 2 1 1 1 1 0 0 1 1 1
10 9 8 10 8 8 8 8 8 7 5 2 2 1 2 2 3 3 3 2 2 2 2 1 1 1 1 1 1 1 1 1 1 1 2 2 1 1 1 1 1 1 0 1
9 8 9 9 5 6 6 5 5 6 4 1 1 1 1 1 2 3 2 1 2 2 2 1 1 1 1 1 0 1 1 1 0 1 1 2 2 2 1 1 1 1 1 1
7 9 9 1 1 2 4 4 4 4 2 2 1 1 1 0 2 3 2 2 2 1 1 0 0 0 0 1 1 1 0 0 0 0 0 1 2 2 2 1 1 1 1 1
6 8 6 3 1 2 3 4 2 2 2 1 1 1 1 1 3 3 2 2 1 1 1 1 1 1 0 1 1 1 1 0 0 0 0 0 1 2 2 2 1 1 1 1
6 8 6 1 2 3 4 3 2 2 2 2 2 2 1 2 3 2 2 2 1 1 1 1 1 1 1 1 1 0 0 0 0 0 1 1 1 2 2 2 1 1 1 1
8 9 4 1 2 2 2 2 3 3 3 3 2 2 2 2 2 1 1 1 1 1 0 1 1 1 1 1 0 0 0 0 1 1 1 1 1 1 1 2 2 1 1 1
6 8 4 2 1 1 2 3 3 3 2 3 3 2 2 2 1 1 1 1 1 1 1 1 0 1 1 1 0 0 1 1 1 1 1 1 0 1 1 1 1 1 1 1
3 2 2 2 3 4 4 4 4 3 2 2 2 2 2 2 1 0 1 1 1 1 1 1 0 1 1 1 0 0 1 1 1 1 1 1 1 1 1 1 1 1 1 1
5 3 2 3 3 3 4 4 4 4 3 2 2 2 2 2 2 1 1 1 0 1 1 0 0 0 1 1 1 1 1 1 1 1 1 1 0 0 0 0 0 1 1 1
8 5 3 2 2 3 4 4 4 4 4 3 3 2 2 2 2 1 1 0 1 1 1 1 0 0 0 1 1 1 1 1 1 1 1 0 0 0 0 0 1 1 1 1
5 4 4 3 3 4 3 4 4 4 4 3 3 3 2 2 1 1 1 1 0 1 1 1 0 0 0 0 1 1 1 1 1 1 0 0 0 0 0 1 1 1 2 2
5 5 5 4 4 3 4 4 4 4 4 3 3 2 2 2 1 1 2 2 1 1 1 1 1 1 1 1 1 1 1 1 1 1 1 1 1 1 1 1 2 2 3 3
4 3 4 4 4 4 4 3 3 4 3 2 2 2 2 2 2 2 2 2 1 1 1 1 1 1 1 0 0 1 1 1 1 1 1 1 1 2 2 2 2 2 3 4
4 3 3 3 3 3 3 3 3 3 3 2 1 1 2 2 2 2 2 2 2 2 2 1 1 1 0 0 1 1 1 1 1 1 1 1 1 1 2 2 2 2 1 2
4 3 3 3 4 4 4 4 4 3 3 2 2 2 2 2 2 2 2 2 2 2 2 1 2 1 1 0 1 1 1 2 2 1 1 1 1 2 2 2 2 2 1 1
3 3 3 3 4 4 4 4 3 3 3 3 2 2 2 2 2 2 2 1 1 2 2 2 2 1 1 1 1 1 1 1 3 2 1 1 1 2 2 1 2 2 2 1
2 3 3 3 4 4 3 3 3 3 2 2 2 2 2 2 2 2 2 2 2 2 2 2 2 1 1 2 1 1 1 1 1 2 1 1 1 1 1 2 2 2 1 1
2 2 2 3 4 4 3 2 2 2 2 1 1 2 1 2 2 2 1 2 2 2 2 2 2 2 2 2 2 1 1 2 2 1 1 2 2 1 2 2 2 2 2 1
2 2 2 3 3 3 3 2 2 2 1 1 1 2 2 1 1 1 1 1 2 2 2 2 2 2 2 2 2 1 1 2 2 1 1 1 1 2 2 2 2 2 2 2
2 2 3 3 3 3 3 2 2 2 1 2 2 2 2 2 1 1 1 2 2 1 1 2 2 2 1 2 2 1 2 2 2 2 2 2 2 2 2 2 2 2 2 2
2 2 3 3 3 3 2 2 2 2 2 2 2 2 2 2 1 2 2 2 1 1 1 1 1 2 3 3 1 2 2 2 2 2 2 2 2 3 3 3 3 2 2 2
3 3 3 3 3 3 2 2 2 2 2 2 2 2 2 2 1 2 2 1 1 2 1 1 3 4 5 2 2 2 3 3 3 2 2 2 3 3 3 3 3 3 2 2
3 3 3 3 3 3 3 2 2 2 2 2 2 2 2 2 2 2 1 2 2 2 2 2 4 5 4 2 2 3 3 3 3 3 3 3 3 3 3 3 3 3 3 3
3 3 3 3 3 2 2 2 2 2 2 2 2 2 2 1 1 1 2 2 3 3 2 3 5 5 3 3 3 3 3 3 3 3 3 3 3 3 3 3 3 3 3 3
3 2 2 3 2 2 2 2 2 2 2 2 2 1 1 1 1 1 1 2 3 4 3 2 2 3 3 3 3 3 3 3 4 3 3 3 3 3 3 3 4 3 3 3
3 2 2 2 2 1 2 2 2 2 2 2 2 2 2 1 1 2 2 2 2 2 3 2 2 2 3 3 3 3 3 3 3 3 3 3 3 3 3 4 3 3 3 3
Wind_Direction
284 289 292 287 280 276 272 277 282 289 297 273 217 148 137 135 140 140 135 123 126 129 127 132 133 116 66 31 12 19 63 60 40 16 357 357 341 330 323 56 266 215 179 171
280 275 269 270 268 267 268 271 275 281 287 337 4 52 134 151 154 145 146 146 145 145 136 134 130 135 196 204 187 129 103 68 45 24 351 0 344 325 353 343 280 259 182 173
281 281 272 258 263 263 262 268 281 277 289 325 340 337 337 173 152 144 139 128 137 146 145 153 162 173 235 238 196 160 147 129 93 32 5 354 346 345 338 310 304 299 259 189
279 282 267 251 328 286 275 274 277 277 300 325 319 315 323 258 159 144 134 124 107 92 81 77 172 189 224 205 185 194 191 171 141 125 3 358 350 333 315 299 296 283 267 234
277 276 267 259 339 3 307 288 295 294 309 325 333 324 299 67 105 129 132 125 109 101 83 44 21 17 14 196 201 203 216 234 131 129 300 316 304 303 291 286 280 284 279 253
269 274 274 311 47 5 306 273 17 335 310 305 299 272 276 57 51 78 97 103 98 89 30 37 16 8 314 249 228 204 144 329 322 292 258 241 260 281 294 285 279 280 287 278
258 264 265 44 42 4 286 324 15 360 350 340 332 333 14 35 28 55 89 111 117 118 92 62 10 337 295 287 274 4 25 326 284 266 258 247 253 270 281 285 292 294 305 315
255 259 252 58 18 317 323 347 349 344 350 348 345 349 354 5 19 75 115 119 123 131 136 101 11 295 278 277 271 173 198 244 263 266 275 285 283 280 274 272 283 287 297 303
266 286 3 14 347 335 340 341 345 340 340 339 328 319 337 345 342 145 117 110 123 151 188 157 128 305 276 292 331 173 208 230 239 249 274 287 250 263 283 289 275 284 290 291
274 269 292 305 316 330 339 340 338 335 334 334 315 314 321 325 327 344 87 100 104 186 233 210 143 280 307 349 317 257 238 244 239 233 243 277 310 300 322 301 279 279 285 286
275 282 290 279 313 336 337 331 328 332 334 326 317 315 303 302 313 328 329 213 159 219 235 258 76 2 3 357 317 282 268 270 281 258 218 202 75 343 289 158 191 246 267 265
279 304 301 306 324 329 320 317 321 317 312 316 315 310 309 308 321 331 319 324 252 254 261 274 268 247 286 301 287 287 290 287 280 281 257 186 164 321 303 228 192 233 258 269
297 310 306 312 318 314 305 307 310 305 300 303 311 313 308 305 311 318 314 309 306 292 283 291 284 264 261 247 268 286 289 300 279 261 244 224 229 239 263 276 251 251 255 265
313 314 303 307 302 296 298 307 306 301 301 306 319 325 321 321 324 315 306 311 317 306 274 267 262 258 270 323 313 287 275 282 276 255 255 232 233 241 244 243 251 261 250 250
295 297 297 307 312 314 315 310 304 303 312 317 322 318 312 310 309 316 324 333 324 301 281 273 272 277 359 33 287 274 258 250 249 257 250 254 263 261 260 262 261 260 263 260
287 297 298 294 298 302 303 296 294 301 313 319 317 314 316 326 329 325 319 317 309 302 300 298 299 311 12 338 277 265 237 265 273 259 234 236 248 254 256 260 265 271 273 264
272 281 293 292 299 299 299 306 312 317 322 319 317 331 346 347 340 330 325 326 330 326 328 327 324 352 2 320 272 259 244 238 251 259 240 238 247 252 252 258 266 266 263 257
256 273 285 291 299 304 305 311 313 317 318 324 334 343 334 319 312 321 335 344 351 344 328 326 348 2 342 322 292 259 257 248 238 238 242 251 263 266 270 270 272 272 276 270
275 289 300 307 308 305 299 296 302 308 320 326 314 305 305 309 318 321 324 329 325 312 309 327 330 318 300 296 298 263 255 254 252 244 236 255 265 260 261 268 273 270 266 263
319 320 317 310 307 305 301 298 300 302 305 288 282 286 290 292 291 296 295 294 290 292 316 334 312 286 278 285 298 281 270 263 259 255 248 247 250 257 262 269 276 283 285 284
293 300 303 304 305 307 302 294 286 272 270 269 271 275 278 283 285 281 281 284 293 320 328 322 311 298 286 299 286 279 271 265 261 256 247 246 250 255 258 261 265 270 273 278
276 280 286 291 293 294 291 288 284 280 273 268 273 280 277 273 283 290 285 277 288 303 291 280 285 300 304 300 267 262 263 261 259 258 252 248 247 248 249 254 255 257 258 261
284 284 284 287 288 287 287 281 276 273 270 269 269 269 272 267 254 261 277 278 270 279 286 272 285 296 305 292 264 256 259 262 264 261 255 253 253 252 253 256 256 258 257 258
285 285 286 287 287 283 280 279 269 266 266 269 262 256 255 259 264 263 269 272 277 277 275 267 284 292 297 274 258 256 256 256 257 258 257 256 256 254 255 257 260 260 257 260
290 286 283 287 287 285 287 288 281 269 262 258 261 265 264 252 261 273 275 266 265 272 267 263 272 277 270 263 257 253 253 252 255 256 254 254 255 253 253 253 255 259 261 259
297 295 290 281 281 281 281 277 277 277 273 272 273 268 263 255 259 269 273 272 271 280 279 268 260 260 256 260 260 258 259 267 267 259 254 257 258 258 258 257 258 255 259 259
298 297 293 287 288 282 278 273 271 271 267 267 273 271 265 258 253 257 262 260 260 265 271 274 265 259 261 264 262 260 261 262 259 253 254 254 253 253 257 261 261 259 259 260